• In Belarus
  • List of Countries
  • For 7 days
  • Water Temperature
  • Satellite Maps
  • Weather Map
  • Weather Widgets
  • user-avatar
    Login

    Hourly Weather Dolina

    Today, 13 December, Wednesday

    Time Temperature Precipitation Wind Pressure Humidity
    00:00 +7°C° 0.6 mm 3 mps 720 mmHg 88%
    01:00 +5°C° 0.6 mm 3 mps 720 mmHg 89%
    02:00 +6°C° 0 mm 2 mps 720 mmHg 91%
    03:00 +4°C° 1 mm 3 mps 720 mmHg 91%
    04:00 +4°C° 1 mm 3 mps 720 mmHg 90%
    05:00 +3°C° 1 mm 3 mps 721 mmHg 90%
    06:00 +3°C° 1.1 mm 3 mps 721 mmHg 90%
    07:00 +2°C° 1.1 mm 3 mps 721 mmHg 91%
    08:00 +1°C° 0 mm 3 mps 722 mmHg 91%
    09:00 +2°C° 1 mm 2 mps 722 mmHg 91%
    10:00 +2°C° 1 mm 2 mps 722 mmHg 92%
    11:00 +2°C° 1 mm 2 mps 722 mmHg 92%
    12:00 +2°C° 0.7 mm 2 mps 722 mmHg 92%
    13:00 +3°C° 0.7 mm 1 mps 722 mmHg 92%
    14:00 +3°C° 0.7 mm 1 mps 722 mmHg 92%
    15:00 +2°C° 0.3 mm 1 mps 722 mmHg 93%
    16:00 +2°C° 0.3 mm 1 mps 721 mmHg 94%
    17:00 +1°C° 0.3 mm 0 mps 721 mmHg 95%
    18:00 +1°C° 0.1 mm 1 mps 721 mmHg 95%
    19:00 +1°C° 0.1 mm 1 mps 720 mmHg 95%
    20:00 +1°C° 0.1 mm 1 mps 720 mmHg 96%
    21:00 +1°C° 0 mm 1 mps 720 mmHg 96%
    22:00 +1°C° 0 mm 1 mps 719 mmHg 96%
    23:00 0°C° 0 mm 1 mps 719 mmHg 96%

    Tomorrow, 14 December, Thursday

    Time Temperature Precipitation Wind Pressure Humidity
    00:00 0°C° 0 mm 1 mps 719 mmHg 95%
    01:00 -2°C° 0 mm 2 mps 718 mmHg 95%
    02:00 -2°C° 0 mm 2 mps 718 mmHg 94%
    03:00 -2°C° 0 mm 2 mps 717 mmHg 93%
    04:00 -2°C° 0 mm 2 mps 717 mmHg 92%
    05:00 -2°C° 0 mm 3 mps 716 mmHg 92%
    06:00 -2°C° 0 mm 3 mps 716 mmHg 90%
    07:00 -2°C° 0 mm 4 mps 716 mmHg 89%
    08:00 -2°C° 0 mm 4 mps 715 mmHg 88%
    09:00 -1°C° 0 mm 4 mps 715 mmHg 86%
    10:00 0°C° 0 mm 5 mps 715 mmHg 83%
    11:00 +1°C° 0 mm 5 mps 715 mmHg 81%
    12:00 +1°C° 0 mm 5 mps 714 mmHg 81%
    13:00 +1°C° 0 mm 5 mps 714 mmHg 81%
    14:00 +2°C° 0 mm 5 mps 713 mmHg 81%
    15:00 +2°C° 0.1 mm 5 mps 714 mmHg 82%
    16:00 +1°C° 0.1 mm 5 mps 714 mmHg 83%
    17:00 +1°C° 0.1 mm 5 mps 714 mmHg 83%
    18:00 +1°C° 0.1 mm 5 mps 714 mmHg 82%
    19:00 +1°C° 0.1 mm 5 mps 715 mmHg 82%
    20:00 +2°C° 0.1 mm 5 mps 715 mmHg 81%
    21:00 +1°C° 0 mm 4 mps 715 mmHg 83%
    22:00 0°C° 0 mm 4 mps 715 mmHg 84%
    23:00 +1°C° 0 mm 3 mps 715 mmHg 86%

    Day after tomorrow, 15 December, Friday

    Time Temperature Precipitation Wind Pressure Humidity
    00:00 +1°C° 0 mm 3 mps 715 mmHg 85%
    01:00 +1°C° 0 mm 3 mps 715 mmHg 84%
    02:00 0°C° 0 mm 3 mps 715 mmHg 83%
    03:00 0°C° 0 mm 3 mps 714 mmHg 84%
    04:00 0°C° 0 mm 3 mps 714 mmHg 85%
    05:00 -1°C° 0 mm 2 mps 713 mmHg 86%
    06:00 0°C° 0 mm 3 mps 713 mmHg 86%
    07:00 0°C° 0 mm 3 mps 713 mmHg 86%
    08:00 0°C° 0 mm 3 mps 713 mmHg 86%
    09:00 0°C° 0.1 mm 4 mps 712 mmHg 85%
    10:00 +3°C° 0.1 mm 4 mps 712 mmHg 84%
    11:00 +4°C° 0.1 mm 4 mps 712 mmHg 83%
    12:00 +4°C° 0.5 mm 4 mps 711 mmHg 84%
    13:00 +5°C° 0.5 mm 4 mps 711 mmHg 84%
    14:00 +5°C° 0.5 mm 4 mps 711 mmHg 85%
    15:00 +5°C° 0.6 mm 3 mps 711 mmHg 87%
    16:00 +4°C° 0.6 mm 3 mps 711 mmHg 88%
    17:00 +4°C° 0.6 mm 3 mps 712 mmHg 90%
    18:00 +5°C° 0.4 mm 2 mps 712 mmHg 91%
    19:00 +4°C° 0.4 mm 2 mps 712 mmHg 92%
    20:00 +5°C° 0.4 mm 1 mps 713 mmHg 93%
    21:00 +5°C° 0.8 mm 1 mps 713 mmHg 94%
    22:00 +4°C° 0.8 mm 1 mps 713 mmHg 94%
    23:00 +4°C° 0.8 mm 1 mps 713 mmHg 95%

    16 December, Saturday

    Time Temperature Precipitation Wind Pressure Humidity
    00:00 +3°C° 2 mm 2 mps 712 mmHg 95%
    01:00 +2°C° 2 mm 2 mps 711 mmHg 95%
    02:00 +2°C° 2 mm 2 mps 711 mmHg 95%
    03:00 +2°C° 3.2 mm 2 mps 710 mmHg 95%
    04:00 +3°C° 3.2 mm 1 mps 710 mmHg 96%
    05:00 +2°C° 3.2 mm 1 mps 709 mmHg 97%
    06:00 +2°C° 1.1 mm 1 mps 709 mmHg 97%
    07:00 +1°C° 1.1 mm 2 mps 709 mmHg 97%
    08:00 +1°C° 1.1 mm 2 mps 709 mmHg 97%
    09:00 +2°C° 1.2 mm 2 mps 709 mmHg 97%
    10:00 +2°C° 1.2 mm 2 mps 709 mmHg 98%
    11:00 +3°C° 1.2 mm 1 mps 710 mmHg 98%
    12:00 +2°C° 0.4 mm 2 mps 710 mmHg 98%
    13:00 +2°C° 0.4 mm 2 mps 710 mmHg 97%
    14:00 +1°C° 0.4 mm 3 mps 711 mmHg 97%
    15:00 +1°C° 0.2 mm 3 mps 712 mmHg 97%
    16:00 0°C° 0.2 mm 3 mps 712 mmHg 96%
    17:00 0°C° 0.2 mm 3 mps 713 mmHg 96%
    18:00 +1°C° 0 mm 2 mps 714 mmHg 96%
    19:00 -1°C° 0 mm 2 mps 715 mmHg 96%
    20:00 -1°C° 0 mm 2 mps 716 mmHg 96%
    21:00 -1°C° 0 mm 2 mps 716 mmHg 96%
    22:00 0°C° 0 mm 1 mps 716 mmHg 96%
    23:00 0°C° 0 mm 1 mps 717 mmHg 96%

    17 December, Sunday

    Time Temperature Precipitation Wind Pressure Humidity
    00:00 0°C° 0 mm 1 mps 717 mmHg 95%
    01:00 0°C° 0 mm 1 mps 717 mmHg 95%
    02:00 -1°C° 0 mm 1 mps 717 mmHg 94%
    03:00 -1°C° 0.1 mm 1 mps 717 mmHg 94%
    04:00 -1°C° 0.1 mm 1 mps 717 mmHg 94%
    05:00 -1°C° 0.1 mm 1 mps 717 mmHg 94%
    06:00 -1°C° 0.3 mm 1 mps 718 mmHg 94%
    07:00 -3°C° 0.3 mm 2 mps 718 mmHg 95%
    08:00 -3°C° 0.3 mm 2 mps 718 mmHg 95%
    09:00 -3°C° 0.4 mm 2 mps 718 mmHg 95%
    10:00 -3°C° 0.4 mm 2 mps 719 mmHg 95%
    11:00 -2°C° 0.4 mm 3 mps 719 mmHg 95%
    12:00 -2°C° 0.3 mm 3 mps 719 mmHg 94%
    13:00 -2°C° 0.3 mm 3 mps 719 mmHg 93%
    14:00 -2°C° 0.3 mm 3 mps 719 mmHg 92%
    15:00 -2°C° 0.2 mm 3 mps 719 mmHg 93%
    16:00 -4°C° 0.2 mm 3 mps 719 mmHg 93%
    17:00 -4°C° 0.2 mm 3 mps 720 mmHg 94%
    18:00 -4°C° 0.1 mm 3 mps 720 mmHg 94%
    19:00 -3°C° 0.1 mm 2 mps 720 mmHg 94%
    20:00 -3°C° 0.1 mm 2 mps 721 mmHg 94%
    21:00 -3°C° 0.1 mm 2 mps 721 mmHg 94%
    22:00 -3°C° 0.1 mm 2 mps 721 mmHg 94%
    23:00 -3°C° 0.1 mm 2 mps 721 mmHg 94%

    18 December, Monday

    Time Temperature Precipitation Wind Pressure Humidity
    00:00 -4°C° 0 mm 2 mps 722 mmHg 93%
    01:00 -4°C° 0 mm 2 mps 722 mmHg 93%
    02:00 -5°C° 0 mm 2 mps 722 mmHg 92%
    03:00 -5°C° 0 mm 2 mps 722 mmHg 92%
    04:00 -5°C° 0 mm 2 mps 722 mmHg 91%
    05:00 -6°C° 0 mm 2 mps 722 mmHg 91%
    06:00 -6°C° 0 mm 2 mps 723 mmHg 91%
    07:00 -5°C° 0 mm 2 mps 723 mmHg 91%
    08:00 -5°C° 0 mm 2 mps 723 mmHg 91%
    09:00 -5°C° 0 mm 2 mps 723 mmHg 90%
    10:00 -4°C° 0 mm 2 mps 724 mmHg 89%
    11:00 -3°C° 0 mm 2 mps 724 mmHg 88%
    12:00 -3°C° 0 mm 2 mps 724 mmHg 87%
    13:00 -2°C° 0 mm 2 mps 724 mmHg 86%
    14:00 -2°C° 0 mm 2 mps 724 mmHg 85%
    15:00 -3°C° 0.1 mm 2 mps 724 mmHg 87%
    16:00 -2°C° 0.1 mm 1 mps 724 mmHg 89%
    17:00 -3°C° 0.1 mm 1 mps 724 mmHg 92%
    18:00 -3°C° 0.1 mm 1 mps 724 mmHg 92%
    19:00 -4°C° 0.1 mm 1 mps 725 mmHg 92%
    20:00 -4°C° 0.1 mm 1 mps 725 mmHg 93%
    21:00 -6°C° 0 mm 1 mps 725 mmHg 92%
    22:00 -6°C° 0 mm 1 mps 726 mmHg 92%
    23:00 -7°C° 0 mm 2 mps 726 mmHg 92%
    Show more